Skip Page Navigation
NASA JPL Caltech
NASA Logo - Jet Propulsion Laboratory + View the NASA Portal
+ Near-Earth Object (NEO) Program
Search JPL
JPL Home Earth Solar System Stars & Galaxies Technology
JPL Solar System Dynamics
BODIES ORBITS EPHEMERIDES TOOLS PHYSICAL DATA DISCOVERY FAQ SITE MAP
JPL Small-Body Database Browser
Search: [ help ]  
10334 Gibbon (1991 PG5)
Classification: Main-belt Asteroid          SPK-ID: 2010334
Ephemeris | Orbit Diagram | Orbital Elements | Physical Parameters | Discovery Circumstances | Close-Approach Data ]

[ show orbit diagram ]
Orbital Elements at Epoch 2457000.5 (2014-Dec-09.0) TDB
Reference: JPL 10 (heliocentric ecliptic J2000)
 Element Value Uncertainty (1-sigma)   Units 
e .07252511215122355 8.8369e-08  
a 2.875930863741901 3.5405e-08 AU
q 2.667353655309855 2.4864e-07 AU
i .9636726109612829 7.3428e-06 deg
node 225.1963759250459 0.00042847 deg
peri 132.5012645195291 0.0004305 deg
M 244.4341828147521 4.8457e-05 deg
tp 2457572.364296766153
(2016-Jul-02.86429677)
0.00024664 JED
period 1781.419037653763
4.88
3.2896e-05
9.006e-08
d
yr
n .2020860855254706 3.7318e-09 deg/d
Q 3.084508072173948 3.7973e-08 AU
  Orbit Determination Parameters
   # obs. used (total)      620  
   data-arc span      8353 days (22.87 yr)  
   first obs. used      1991-08-03  
   last obs. used      2014-06-16  
   planetary ephem.      DE431  
   SB-pert. ephem.      SB431-BIG16  
   condition code      0  
   fit RMS      .57176  
   data source      ORB  
   producer      Otto Matic  
   solution date      2015-Jan-08 00:33:34  

Additional Information
 Earth MOID = 1.66342 AU 
 T_jup = 3.292 
[ show covariance matrix ]

Ephemeris | Orbit Diagram | Orbital Elements | Physical Parameters | Discovery Circumstances | Close-Approach Data ]

Physical Parameter Table
Parameter Symbol Value Units Sigma Reference Notes
absolute magnitude H 14.3 mag n/a MPO250314  

10334 Gibbon           Discovered 1991 Aug. 3 by E. W. Elst at the European Southern Observatory.
British historian Edward Gibbon (1737-1794), celebrated for his six-volume work The Decline and Fall of the Roman Empire (1776-1789), attributed the fall of the Roman Empire to the loss of civil virtue among its citizens.
NOTE: some special characters may not display properly (any characters within {} are an attempt to place the proper accent above a character)
Reference: 20071124/MPCPages.arcLast Updated: 2007-11-26

[ show close-approach data ]
Alternate Designations
 1991 PG5 = 1996 PO2 
Ephemeris | Orbit Diagram | Orbital Elements | Physical Parameters | Discovery Circumstances | Close-Approach Data ]
ABOUT SSD CREDITS/AWARDS PRIVACY/COPYRIGHT GLOSSARY LINKS
FirstGov 2015-Mar-05 18:44 UT
(server date/time)  
NASA Home Page
Site Manager:   Ryan S. Park
Webmaster  Alan B. Chamberlin